Terminal Aerodrome Forecast
Issued by NWS

Home | Current Version | Previous Version | Text Only | Print | Product List | Glossary On
Versions: 1 2 3 4 5 6 7 8 9 10 11 12 13 14 15 16 17 18 19 20 21 22 23 24
000
FTUS43 KILX 050939 AAA
TAFCMI
TAF AMD
KCMI 050939Z 0510/0606 VRB03KT P6SM SKC
     FM051100 VRB03KT 4SM BR SKC
      TEMPO 0511/0513 3SM BR
     FM051300 13004KT P6SM SCT025
     FM051700 16005KT P6SM SCT035=

USA.gov is the U.S. government's official web portal to all federal, state and local government web resources and services.